Powrót do katalogu

SL-19 R/B

AktywnyPO
NORAD 35501·ROCKET BODY·🇷🇺 Russia

Wystrzelony Jul 6, 2009 z Plesetsk Cosmodrome

Loading…

Następne Przeloty (najbliższe 24 godziny)

TLE

ŚwieżeSource: Space-Track

Epoka: Sep 14, 2026, 01:45 UTC

1 35501U 09036D   26257.07307549  .00000032  00000-0  81248-4 0  9991
2 35501  82.4922 129.7700 0197070  85.6281  85.9884 12.76651707801141

Śledź SL-19 R/B w czasie rzeczywistym z AllMySat

Download on the App Store